ZHANGZHENG-1 (CSES) (43194 NORAD) Tracking and Keplerian Element Data

This shows tracking and keplerian element data for the satellite.

Feedback or suggestion? Click here.




ElementValue
Catalog43194
NameZHANGZHENG-1 (CSES)
Epoch Orbit11991
Epoch Day92.15532469
Epoch Year2020
RAAN218.255
Inclination97.4238
Eccentricity0.001587
Argument of Perigee24.7644
Mean Anonmoly99.0905
Mean Motion15.21025382
Decay Rate8.55E-06
L11 43194U 18015C 20092.15532469 .00000855 00000-0 41546-4 0 9996
L22 43194 97.4238 218.2550 0015870 24.7644 99.0905 15.21025382119919

Live tracking and technical data element details for ZHANGZHENG-1 (CSES) (NORAD 43194). ZHANGZHENG-1 (CSES) can be tracked NOW for your location showing map with azimuth and elevation plus other details from your city location.

Track the satellite on the map from your city or location and see movement details for azimuth, elevation, latitude, longitude, range, height, and movement on the map or in text.







IsCatalogInMostPopularTable: catalog: 43194, numindb: 385
Update: records affected: 1



GetName: 43194 ZHANGZHENG-1 (CSES)

Hit Count: updated at: Fri, 03 Apr 2020 08:08:58 GMT